START_TIME,STEP,MOV.,A46,t_acc.,A13,t_acc.,M47,t_acc.,A17,t_acc.,A28,t_acc.,M38,t_acc.
1979-07-19 03:00:25.380 ,1,0,,0,12.,4.8,0.,4.8,,0,0.,4.8,4.,4.8
1979-07-19 03:00:30.180 ,1,0,,0,11.,4.8,4.,4.8,,0,0.,4.8,3.,4.8
1979-07-19 03:00:34.980 ,1,0,,0,5.,4.8,0.,4.8,,0,0.,4.8,4.,4.8
1979-07-19 03:00:39.780 ,1,0,,0,0.,4.8,0.,4.8,,0,0.,4.8,3.,4.8
1979-07-19 03:00:44.580 ,1,0,,0,0.,4.8,0.,4.8,,0,0.,4.8,5.,4.8
1979-07-19 03:00:49.380 ,2,0,,0,0.,4.8,0.,4.8,,0,0.,4.8,1.,4.8
1979-07-19 03:00:54.180 ,2,0,,0,0.,4.8,0.,4.8,,0,0.,4.8,14.,4.8
1979-07-19 03:00:58.980 ,2,0,,0,12.,4.8,2.,4.8,,0,0.,4.8,26.,4.8
1979-07-19 03:01:03.780 ,2,0,,0,60.,4.8,8.,4.8,,0,0.,4.8,32.,4.8
1979-07-19 03:01:08.580 ,2,0,,0,66.,4.8,6.,4.8,,0,0.,4.8,34.,4.8
1979-07-19 03:01:13.380 ,2,0,,0,64.,4.8,11.,4.8,,0,0.,4.8,34.,4.8
1979-07-19 03:01:18.180 ,2,0,,0,57.,4.8,6.,4.8,,0,0.,4.8,28.,4.8
1979-07-19 03:01:22.980 ,2,0,,0,54.,4.8,9.,4.8,,0,0.,4.8,31.,4.8
1979-07-19 03:01:27.780 ,2,0,,0,0.,4.8,0.,4.8,,0,0.,4.8,29.,4.8
1979-07-19 03:01:32.580 ,2,0,,0,0.,4.8,0.,4.8,,0,0.,4.8,35.,4.8
1979-07-19 03:01:37.380 ,3,0,,0,0.,4.8,0.,4.8,,0,0.,4.8,33.,4.8
1979-07-19 03:01:42.180 ,3,0,,0,0.,4.8,0.,4.8,,0,0.,4.8,22.,4.8
1979-07-19 03:01:46.980 ,3,0,,0,5.,4.8,0.,4.8,,0,0.,4.8,15.,4.8
1979-07-19 03:01:51.780 ,3,0,,0,28.,4.8,6.,4.8,,0,0.,4.8,12.,4.8
1979-07-19 03:01:56.580 ,3,0,,0,25.,4.8,2.,4.8,,0,0.,4.8,12.,4.8
1979-07-19 03:02:01.380 ,3,0,,0,26.,4.8,2.,4.8,,0,0.,4.8,15.,4.8
1979-07-19 03:02:06.180 ,3,0,,0,30.,4.8,3.,4.8,,0,0.,4.8,13.,4.8
1979-07-19 03:02:10.980 ,3,0,,0,27.,4.8,3.,4.8,,0,0.,4.8,22.,4.8
1979-07-19 03:02:15.780 ,3,0,,0,0.,4.8,0.,4.8,,0,0.,4.8,17.,4.8
1979-07-19 03:02:20.580 ,3,0,,0,0.,4.8,0.,4.8,,0,0.,4.8,11.,4.8
1979-07-19 03:02:25.380 ,4,0,,0,1.,4.8,0.,4.8,,0,0.,4.8,17.,4.8
1979-07-19 03:02:30.180 ,4,0,,0,0.,4.8,0.,4.8,,0,0.,4.8,14.,4.8
1979-07-19 03:02:34.980 ,4,0,,0,0.,4.8,0.,4.8,,0,0.,4.8,1.,4.8
1979-07-19 03:02:39.780 ,4,0,,0,10.,4.8,1.,4.8,,0,0.,4.8,5.,4.8
1979-07-19 03:02:44.580 ,4,0,,0,7.,4.8,1.,4.8,,0,0.,4.8,1.,4.8
1979-07-19 03:02:49.380 ,4,0,,0,8.,4.8,1.,4.8,,0,0.,4.8,1.,4.8
1979-07-19 03:02:54.180 ,4,0,,0,8.,4.8,1.,4.8,,0,0.,4.8,1.,4.8
1979-07-19 03:02:58.980 ,4,0,,0,4.,4.8,1.,4.8,,0,0.,4.8,1.,4.8
1979-07-19 03:03:03.780 ,4,0,,0,0.,4.8,0.,4.8,,0,0.,4.8,2.,4.8
1979-07-19 03:03:08.580 ,4,0,,0,0.,4.8,0.,4.8,,0,0.,4.8,3.,4.8
1979-07-19 03:03:13.380 ,5,0,,0,0.,4.8,0.,4.8,,0,0.,4.8,3.,4.8
1979-07-19 03:03:18.180 ,5,0,,0,0.,4.8,0.,4.8,,0,0.,4.8,1.,4.8
1979-07-19 03:03:22.980 ,5,0,,0,0.,4.8,0.,4.8,,0,0.,4.8,0.,4.8
1979-07-19 03:03:27.780 ,5,0,,0,2.,4.8,0.,4.8,,0,0.,4.8,2.,4.8
1979-07-19 03:03:32.580 ,5,0,,0,7.,4.8,0.,4.8,,0,0.,4.8,1.,4.8
1979-07-19 03:03:37.380 ,5,0,,0,11.,4.8,2.,4.8,,0,0.,4.8,2.,4.8
1979-07-19 03:03:42.180 ,5,0,,0,8.,4.8,0.,4.8,,0,0.,4.8,0.,4.8
1979-07-19 03:03:46.980 ,5,0,,0,3.,4.8,0.,4.8,,0,0.,4.8,3.,4.8
1979-07-19 03:03:51.780 ,5,0,,0,0.,4.8,0.,4.8,,0,0.,4.8,0.,4.8
1979-07-19 03:03:56.580 ,5,0,,0,0.,4.8,0.,4.8,,0,0.,4.8,2.,4.8
1979-07-19 03:04:01.380 ,6,0,,0,0.,4.8,0.,4.8,,0,0.,4.8,0.,4.8
1979-07-19 03:04:06.180 ,6,0,,0,0.,4.8,0.,4.8,,0,0.,4.8,0.,4.8
1979-07-19 03:04:10.980 ,6,0,,0,0.,4.8,0.,4.8,,0,0.,4.8,1.,4.8
1979-07-19 03:04:15.780 ,6,0,,0,8.,4.8,0.,4.8,,0,0.,4.8,1.,4.8
1979-07-19 03:04:20.580 ,6,0,,0,4.,4.8,0.,4.8,,0,0.,4.8,0.,4.8
1979-07-19 03:04:25.380 ,6,0,,0,5.,4.8,0.,4.8,,0,0.,4.8,0.,4.8
1979-07-19 03:04:30.180 ,6,0,,0,5.,4.8,0.,4.8,,0,0.,4.8,3.,4.8
1979-07-19 03:04:34.980 ,6,0,,0,8.,4.8,1.,4.8,,0,0.,4.8,3.,4.8
1979-07-19 03:04:39.780 ,6,0,,0,0.,4.8,0.,4.8,,0,0.,4.8,1.,4.8
1979-07-19 03:04:44.580 ,6,0,,0,0.,4.8,0.,4.8,,0,0.,4.8,0.,4.8
1979-07-19 03:04:49.380 ,7,0,,0,0.,4.8,0.,4.8,,0,0.,4.8,0.,4.8
1979-07-19 03:04:54.180 ,7,0,,0,0.,4.8,0.,4.8,,0,0.,4.8,1.,4.8
1979-07-19 03:04:58.980 ,7,0,,0,1.,4.8,0.,4.8,,0,0.,4.8,0.,4.8
1979-07-19 03:05:03.780 ,7,0,,0,14.,4.8,0.,4.8,,0,0.,4.8,0.,4.8
1979-07-19 03:05:08.580 ,7,0,,0,12.,4.8,0.,4.8,,0,0.,4.8,0.,4.8
1979-07-19 03:05:13.380 ,7,0,,0,11.,4.8,0.,4.8,,0,0.,4.8,0.,4.8
1979-07-19 03:05:18.180 ,7,0,,0,5.,4.8,0.,4.8,,0,0.,4.8,0.,4.8
1979-07-19 03:05:22.980 ,7,0,,0,16.,4.8,0.,4.8,,0,0.,4.8,0.,4.8
1979-07-19 03:05:27.780 ,7,0,,0,0.,4.8,0.,4.8,,0,0.,4.8,0.,4.8
1979-07-19 03:05:32.580 ,7,0,,0,0.,4.8,0.,4.8,,0,0.,4.8,0.,4.8
1979-07-19 03:05:37.380 ,7,0,,0,0.,4.8,0.,4.8,,0,0.,4.8,0.,4.8
1979-07-19 03:05:42.180 ,7,0,,0,0.,4.8,0.,4.8,,0,0.,4.8,0.,4.8
1979-07-19 03:05:46.980 ,7,0,,0,3.,4.8,0.,4.8,,0,0.,4.8,0.,4.8
1979-07-19 03:05:51.780 ,7,0,,0,8.,4.8,0.,4.8,,0,0.,4.8,0.,4.8
1979-07-19 03:05:56.580 ,7,0,,0,11.,4.8,0.,4.8,,0,0.,4.8,0.,4.8
1979-07-19 03:06:01.380 ,7,0,,0,10.,4.8,0.,4.8,,0,0.,4.8,0.,4.8
1979-07-19 03:06:06.180 ,7,0,,0,12.,4.8,0.,4.8,,0,0.,4.8,0.,4.8
1979-07-19 03:06:10.980 ,7,0,,0,8.,4.8,0.,4.8,,0,0.,4.8,0.,4.8
1979-07-19 03:06:15.780 ,7,0,,0,0.,4.8,0.,4.8,,0,0.,4.8,0.,4.8
1979-07-19 03:06:20.580 ,7,0,,0,0.,4.8,0.,4.8,,0,0.,4.8,0.,4.8
1979-07-19 03:06:25.380 ,6,0,,0,0.,4.8,0.,4.8,,0,0.,4.8,0.,4.8
1979-07-19 03:06:30.180 ,6,0,,0,0.,4.8,0.,4.8,,0,0.,4.8,0.,4.8
1979-07-19 03:06:34.980 ,6,0,,0,0.,4.8,0.,4.8,,0,0.,4.8,1.,4.8
1979-07-19 03:06:39.780 ,6,0,,0,10.,4.8,2.,4.8,,0,0.,4.8,1.,4.8
1979-07-19 03:06:44.580 ,6,0,,0,9.,4.8,2.,4.8,,0,0.,4.8,1.,4.8
1979-07-19 03:06:49.380 ,6,0,,0,4.,4.8,1.,4.8,,0,0.,4.8,2.,4.8
1979-07-19 03:06:54.180 ,6,0,,0,7.,4.8,1.,4.8,,0,0.,4.8,3.,4.8
1979-07-19 03:06:58.980 ,6,0,,0,8.,4.8,1.,4.8,,0,0.,4.8,1.,4.8
1979-07-19 03:07:03.780 ,6,0,,0,0.,4.8,0.,4.8,,0,0.,4.8,0.,4.8
1979-07-19 03:07:08.580 ,6,0,,0,0.,4.8,0.,4.8,,0,0.,4.8,1.,4.8
1979-07-19 03:07:13.380 ,5,0,,0,0.,4.8,0.,4.8,,0,0.,4.8,1.,4.8
1979-07-19 03:07:18.180 ,5,0,,0,0.,4.8,0.,4.8,,0,0.,4.8,6.,4.8
1979-07-19 03:07:22.980 ,5,0,,0,3.,4.8,0.,4.8,,0,0.,4.8,1.,4.8
1979-07-19 03:07:27.780 ,5,0,,0,11.,4.8,2.,4.8,,0,0.,4.8,1.,4.8
1979-07-19 03:07:32.580 ,5,0,,0,10.,4.8,0.,4.8,,0,0.,4.8,1.,4.8
1979-07-19 03:07:37.380 ,5,0,,0,12.,4.8,1.,4.8,,0,0.,4.8,4.,4.8
1979-07-19 03:07:42.180 ,5,0,,0,10.,4.8,0.,4.8,,0,0.,4.8,2.,4.8
1979-07-19 03:07:46.980 ,5,0,,0,13.,4.8,0.,4.8,,0,0.,4.8,1.,4.8
1979-07-19 03:07:51.780 ,5,0,,0,0.,4.8,0.,4.8,,0,0.,4.8,1.,4.8
1979-07-19 03:07:56.580 ,5,0,,0,1.,4.8,0.,4.8,,0,0.,4.8,5.,4.8
1979-07-19 03:08:01.380 ,4,0,,0,0.,4.8,0.,4.8,,0,0.,4.8,2.,4.8
1979-07-19 03:08:06.180 ,4,0,,0,0.,4.8,0.,4.8,,0,0.,4.8,7.,4.8
1979-07-19 03:08:10.980 ,4,0,,0,4.,4.8,0.,4.8,,0,0.,4.8,6.,4.8
1979-07-19 03:08:15.780 ,4,0,,0,17.,4.8,0.,4.8,,0,0.,4.8,4.,4.8
1979-07-19 03:08:20.580 ,4,0,,0,8.,4.8,0.,4.8,,0,0.,4.8,3.,4.8
1979-07-19 03:08:25.380 ,4,0,,0,18.,4.8,4.,4.8,,0,0.,4.8,3.,4.8
1979-07-19 03:08:30.180 ,4,0,,0,18.,4.8,1.,4.8,,0,0.,4.8,3.,4.8
1979-07-19 03:08:34.980 ,4,0,,0,6.,4.8,0.,4.8,,0,0.,4.8,6.,4.8
1979-07-19 03:08:39.780 ,4,0,,0,0.,4.8,0.,4.8,,0,0.,4.8,4.,4.8
1979-07-19 03:08:44.580 ,4,0,,0,0.,4.8,0.,4.8,,0,0.,4.8,5.,4.8
1979-07-19 03:08:49.380 ,3,0,,0,0.,4.8,0.,4.8,,0,0.,4.8,7.,4.8
1979-07-19 03:08:54.180 ,3,0,,0,0.,4.8,0.,4.8,,0,0.,4.8,5.,4.8
1979-07-19 03:08:58.980 ,3,0,,0,6.,4.8,2.,4.8,,0,0.,4.8,31.,4.8
1979-07-19 03:09:03.780 ,3,0,,0,29.,4.8,2.,4.8,,0,0.,4.8,9.,4.8
1979-07-19 03:09:08.580 ,3,0,,0,30.,4.8,0.,4.8,,0,0.,4.8,19.,4.8
1979-07-19 03:09:13.380 ,3,0,,0,44.,4.8,8.,4.8,,0,0.,4.8,23.,4.8
1979-07-19 03:09:18.180 ,3,0,,0,39.,4.8,3.,4.8,,0,0.,4.8,25.,4.8
1979-07-19 03:09:22.980 ,3,0,,0,35.,4.8,4.,4.8,,0,0.,4.8,25.,4.8
1979-07-19 03:09:27.780 ,3,0,,0,0.,4.8,0.,4.8,,0,0.,4.8,21.,4.8
1979-07-19 03:09:32.580 ,3,0,,0,0.,4.8,0.,4.8,,0,0.,4.8,24.,4.8
1979-07-19 03:09:37.380 ,2,0,,0,1.,4.8,0.,4.8,,0,0.,4.8,19.,4.8
1979-07-19 03:09:42.180 ,2,0,,0,0.,4.8,0.,4.8,,0,0.,4.8,26.,4.8
1979-07-19 03:09:46.980 ,2,0,,0,11.,4.8,0.,4.8,,0,0.,4.8,38.,4.8
1979-07-19 03:09:51.780 ,2,0,,0,46.,4.8,9.,4.8,,0,0.,4.8,34.,4.8
1979-07-19 03:09:56.580 ,2,0,,0,44.,4.8,2.,4.8,,0,0.,4.8,33.,4.8
1979-07-19 03:10:01.380 ,2,0,,0,51.,4.8,1.,4.8,,0,0.,4.8,27.,4.8
1979-07-19 03:10:06.180 ,2,0,,0,60.,4.8,4.,4.8,,0,0.,4.8,32.,4.8
1979-07-19 03:10:10.980 ,2,0,,0,50.,4.8,7.,4.8,,0,0.,4.8,17.,4.8
1979-07-19 03:10:15.780 ,2,0,,0,0.,4.8,0.,4.8,,0,0.,4.8,30.,4.8
1979-07-19 03:10:20.580 ,2,0,,0,0.,4.8,0.,4.8,,0,0.,4.8,31.,4.8
1979-07-19 03:10:25.380 ,1,0,,0,0.,4.8,0.,4.8,,0,0.,4.8,33.,4.8
1979-07-19 03:10:30.180 ,1,0,,0,0.,4.8,0.,4.8,,0,0.,4.8,18.,4.8
1979-07-19 03:10:34.980 ,1,0,,0,5.,4.8,0.,4.8,,0,0.,4.8,7.,4.8
1979-07-19 03:10:39.780 ,1,0,,0,16.,4.8,3.,4.8,,0,0.,4.8,8.,4.8
1979-07-19 03:10:44.580 ,1,0,,0,25.,4.8,4.,4.8,,0,0.,4.8,4.,4.8
1979-07-19 03:10:49.380 ,1,0,,0,24.,4.8,3.,4.8,,0,0.,4.8,1.,4.8
1979-07-19 03:10:54.180 ,1,0,,0,14.,4.8,3.,4.8,,0,0.,4.8,7.,4.8
1979-07-19 03:10:58.980 ,1,0,,0,17.,4.8,3.,4.8,,0,0.,4.8,6.,4.8
1979-07-19 03:11:03.780 ,1,0,,0,0.,4.8,0.,4.8,,0,0.,4.8,12.,4.8
1979-07-19 03:11:08.580 ,1,0,,0,0.,4.8,0.,4.8,,0,0.,4.8,11.,4.8
1979-07-19 03:11:13.380 ,0,0,,0,0.,4.8,0.,4.8,,0,0.,4.8,5.,4.8
1979-07-19 03:11:18.180 ,0,0,,0,0.,4.8,0.,4.8,,0,0.,4.8,13.,4.8
1979-07-19 03:11:22.980 ,0,0,,0,1.,4.8,0.,4.8,,0,0.,4.8,0.,4.8
1979-07-19 03:11:27.780 ,0,0,,0,3.,4.8,1.,4.8,,0,0.,4.8,2.,4.8
1979-07-19 03:11:32.580 ,0,0,,0,4.,4.8,0.,4.8,,0,0.,4.8,0.,4.8
1979-07-19 03:11:37.380 ,0,0,,0,4.,4.8,0.,4.8,,0,0.,4.8,1.,4.8
1979-07-19 03:11:42.180 ,0,0,,0,1.,4.8,0.,4.8,,0,0.,4.8,1.,4.8
1979-07-19 03:11:46.980 ,0,0,,0,1.,4.8,0.,4.8,,0,0.,4.8,1.,4.8
1979-07-19 03:11:51.780 ,0,0,,0,0.,4.8,0.,4.8,,0,0.,4.8,1.,4.8
1979-07-19 03:11:56.580 ,0,0,,0,0.,4.8,0.,4.8,,0,0.,4.8,1.,4.8
1979-07-19 03:12:01.380 ,0,0,,0,0.,4.8,0.,4.8,,0,0.,4.8,0.,4.8
1979-07-19 03:12:06.180 ,0,0,,0,0.,4.8,0.,4.8,,0,0.,4.8,0.,4.8
1979-07-19 03:12:10.980 ,0,0,,0,0.,4.8,0.,4.8,,0,0.,4.8,0.,4.8
1979-07-19 03:12:15.780 ,0,0,,0,2.,4.8,0.,4.8,,0,0.,4.8,0.,4.8
1979-07-19 03:12:20.580 ,0,0,,0,4.,4.8,1.,4.8,,0,0.,4.8,1.,4.8
1979-07-19 03:12:25.380 ,0,0,,0,3.,4.8,0.,4.8,,0,0.,4.8,1.,4.8
1979-07-19 03:12:30.180 ,0,0,,0,1.,4.8,0.,4.8,,0,0.,4.8,1.,4.8
1979-07-19 03:12:34.980 ,0,0,,0,0.,4.8,0.,4.8,,0,0.,4.8,0.,4.8
1979-07-19 03:12:39.780 ,0,0,,0,0.,4.8,0.,4.8,,0,0.,4.8,0.,4.8
1979-07-19 03:12:44.580 ,0,0,,0,0.,4.8,0.,4.8,,0,0.,4.8,1.,4.8
1979-07-19 03:12:49.380 ,1,0,,0,0.,4.8,0.,4.8,,0,0.,4.8,0.,4.8
1979-07-19 03:12:54.180 ,1,0,,0,0.,4.8,0.,4.8,,0,0.,4.8,3.,4.8
1979-07-19 03:12:58.980 ,1,0,,0,0.,4.8,0.,4.8,,0,0.,4.8,15.,4.8
1979-07-19 03:13:03.780 ,1,0,,0,11.,4.8,1.,4.8,,0,0.,4.8,10.,4.8
1979-07-19 03:13:08.580 ,1,0,,0,22.,4.8,1.,4.8,,0,0.,4.8,16.,4.8
1979-07-19 03:13:13.380 ,1,0,,0,16.,4.8,2.,4.8,,0,0.,4.8,20.,4.8
1979-07-19 03:13:18.180 ,1,0,,0,19.,4.8,4.,4.8,,0,0.,4.8,20.,4.8
1979-07-19 03:13:22.980 ,1,0,,0,20.,4.8,1.,4.8,,0,0.,4.8,12.,4.8
1979-07-19 03:13:27.780 ,1,0,,0,0.,4.8,0.,4.8,,0,0.,4.8,13.,4.8
1979-07-19 03:13:32.580 ,1,0,,0,0.,4.8,0.,4.8,,0,0.,4.8,4.,4.8
1979-07-19 03:13:37.380 ,2,0,,0,0.,4.8,0.,4.8,,0,0.,4.8,7.,4.8
1979-07-19 03:13:42.180 ,2,0,,0,0.,4.8,0.,4.8,,0,0.,4.8,30.,4.8
1979-07-19 03:13:46.980 ,2,0,,0,7.,4.8,1.,4.8,,0,0.,4.8,39.,4.8
1979-07-19 03:13:51.780 ,2,0,,0,74.,4.8,6.,4.8,,0,0.,4.8,47.,4.8
1979-07-19 03:13:56.580 ,2,0,,0,66.,4.8,5.,4.8,,0,0.,4.8,44.,4.8
1979-07-19 03:14:01.380 ,2,0,,0,74.,4.8,4.,4.8,,0,0.,4.8,38.,4.8
1979-07-19 03:14:06.180 ,2,0,,0,76.,4.8,9.,4.8,,0,0.,4.8,41.,4.8
1979-07-19 03:14:10.980 ,2,0,,0,55.,4.8,2.,4.8,,0,0.,4.8,46.,4.8
1979-07-19 03:14:15.780 ,2,0,,0,0.,4.8,0.,4.8,,0,0.,4.8,45.,4.8
1979-07-19 03:14:20.580 ,2,0,,0,0.,4.8,0.,4.8,,0,0.,4.8,44.,4.8
1979-07-19 03:14:25.380 ,3,0,,0,0.,4.8,0.,4.8,,0,0.,4.8,37.,4.8
1979-07-19 03:14:30.180 ,3,0,,0,0.,4.8,0.,4.8,,0,0.,4.8,40.,4.8
1979-07-19 03:14:34.980 ,3,0,,0,11.,4.8,0.,4.8,,0,0.,4.8,27.,4.8
1979-07-19 03:14:39.780 ,3,0,,0,66.,4.8,4.,4.8,,0,0.,4.8,25.,4.8
1979-07-19 03:14:44.580 ,3,0,,0,42.,4.8,3.,4.8,,0,0.,4.8,26.,4.8
1979-07-19 03:14:49.380 ,3,0,,0,55.,4.8,5.,4.8,,0,0.,4.8,24.,4.8
1979-07-19 03:14:54.180 ,3,0,,0,50.,4.8,5.,4.8,,0,0.,4.8,37.,4.8
1979-07-19 03:14:58.980 ,3,0,,0,39.,4.8,7.,4.8,,0,0.,4.8,35.,4.8
1979-07-19 03:15:03.780 ,3,0,,0,0.,4.8,0.,4.8,,0,0.,4.8,21.,4.8
1979-07-19 03:15:08.580 ,3,0,,0,0.,4.8,0.,4.8,,0,0.,4.8,25.,4.8
1979-07-19 03:15:13.380 ,4,0,,0,0.,4.8,0.,4.8,,0,0.,4.8,28.,4.8
1979-07-19 03:15:18.180 ,4,0,,0,0.,4.8,0.,4.8,,0,0.,4.8,26.,4.8
1979-07-19 03:15:22.980 ,4,0,,0,7.,4.8,3.,4.8,,0,0.,4.8,24.,4.8
1979-07-19 03:15:27.780 ,4,0,,0,35.,4.8,2.,4.8,,0,0.,4.8,14.,4.8
1979-07-19 03:15:32.580 ,4,0,,0,40.,4.8,1.,4.8,,0,0.,4.8,14.,4.8
1979-07-19 03:15:37.380 ,4,0,,0,28.,4.8,0.,4.8,,0,0.,4.8,18.,4.8
1979-07-19 03:15:42.180 ,4,0,,0,44.,4.8,2.,4.8,,0,0.,4.8,11.,4.8
1979-07-19 03:15:46.980 ,4,0,,0,34.,4.8,1.,4.8,,0,0.,4.8,16.,4.8
1979-07-19 03:15:51.780 ,4,0,,0,0.,4.8,0.,4.8,,0,0.,4.8,9.,4.8
1979-07-19 03:15:56.580 ,4,0,,0,0.,4.8,0.,4.8,,0,0.,4.8,21.,4.8
1979-07-19 03:16:01.380 ,5,0,,0,0.,4.8,0.,4.8,,0,0.,4.8,11.,4.8
1979-07-19 03:16:06.180 ,5,0,,0,0.,4.8,0.,4.8,,0,0.,4.8,12.,4.8
1979-07-19 03:16:10.980 ,5,0,,0,3.,4.8,1.,4.8,,0,0.,4.8,5.,4.8
1979-07-19 03:16:15.780 ,5,0,,0,16.,4.8,0.,4.8,,0,0.,4.8,8.,4.8
1979-07-19 03:16:20.580 ,5,0,,0,15.,4.8,4.,4.8,,0,0.,4.8,6.,4.8
1979-07-19 03:16:25.380 ,5,0,,0,,0,,0,,0,,0,,0
1979-07-19 03:16:30.180 ,5,0,,0,18.,4.8,2.,4.8,,0,0.,4.8,8.,4.8
1979-07-19 03:16:34.980 ,5,0,,0,18.,4.8,3.,4.8,,0,0.,4.8,3.,4.8
1979-07-19 03:16:39.780 ,5,0,,0,0.,4.8,0.,4.8,,0,0.,4.8,4.,4.8
1979-07-19 03:16:44.580 ,5,0,,0,0.,4.8,0.,4.8,,0,0.,4.8,6.,4.8
1979-07-19 03:16:49.380 ,6,0,,0,0.,4.8,0.,4.8,,0,0.,4.8,10.,4.8
1979-07-19 03:16:54.180 ,6,0,,0,0.,4.8,0.,4.8,,0,0.,4.8,5.,4.8
1979-07-19 03:16:58.980 ,6,0,,0,4.,4.8,0.,4.8,,0,0.,4.8,3.,4.8
1979-07-19 03:17:03.780 ,6,0,,0,9.,4.8,1.,4.8,,0,0.,4.8,3.,4.8
1979-07-19 03:17:08.580 ,6,0,,0,15.,4.8,0.,4.8,,0,0.,4.8,6.,4.8
1979-07-19 03:17:13.380 ,6,0,,0,14.,4.8,3.,4.8,,0,0.,4.8,6.,4.8
1979-07-19 03:17:18.180 ,6,0,,0,12.,4.8,1.,4.8,,0,0.,4.8,1.,4.8
1979-07-19 03:17:22.980 ,6,0,,0,11.,4.8,0.,4.8,,0,0.,4.8,5.,4.8
1979-07-19 03:17:27.780 ,6,0,,0,0.,4.8,0.,4.8,,0,0.,4.8,3.,4.8
1979-07-19 03:17:32.580 ,6,0,,0,0.,4.8,0.,4.8,,0,0.,4.8,2.,4.8
1979-07-19 03:17:37.380 ,7,0,,0,0.,4.8,0.,4.8,,0,0.,4.8,3.,4.8
1979-07-19 03:17:42.180 ,7,0,,0,0.,4.8,0.,4.8,,0,0.,4.8,0.,4.8
1979-07-19 03:17:46.980 ,7,0,,0,4.,4.8,0.,4.8,,0,0.,4.8,0.,4.8
1979-07-19 03:17:51.780 ,7,0,,0,10.,4.8,0.,4.8,,0,0.,4.8,0.,4.8
1979-07-19 03:17:56.580 ,7,0,,0,11.,4.8,0.,4.8,,0,0.,4.8,0.,4.8
1979-07-19 03:18:01.380 ,7,0,,0,8.,4.8,0.,4.8,,0,0.,4.8,0.,4.8
1979-07-19 03:18:06.180 ,7,0,,0,18.,4.8,0.,4.8,,0,0.,4.8,0.,4.8
1979-07-19 03:18:10.980 ,7,0,,0,9.,4.8,0.,4.8,,0,0.,4.8,0.,4.8
1979-07-19 03:18:15.780 ,7,0,,0,0.,4.8,0.,4.8,,0,0.,4.8,0.,4.8
1979-07-19 03:18:20.580 ,7,0,,0,0.,4.8,0.,4.8,,0,0.,4.8,0.,4.8
1979-07-19 03:18:25.380 ,7,0,,0,0.,4.8,0.,4.8,,0,0.,4.8,0.,4.8
1979-07-19 03:18:30.180 ,7,0,,0,1.,4.8,0.,4.8,,0,0.,4.8,0.,4.8
1979-07-19 03:18:34.980 ,7,0,,0,3.,4.8,0.,4.8,,0,0.,4.8,0.,4.8
1979-07-19 03:18:39.780 ,7,0,,0,7.,4.8,0.,4.8,,0,0.,4.8,0.,4.8
1979-07-19 03:18:44.580 ,7,0,,0,4.,4.8,0.,4.8,,0,0.,4.8,0.,4.8
1979-07-19 03:18:49.380 ,7,0,,0,5.,4.8,0.,4.8,,0,0.,4.8,0.,4.8
1979-07-19 03:18:54.180 ,7,0,,0,7.,4.8,0.,4.8,,0,0.,4.8,0.,4.8
1979-07-19 03:18:58.980 ,7,0,,0,,0,,0,,0,,0,,0
1979-07-19 03:19:03.780 ,7,0,,0,0.,4.8,0.,4.8,,0,0.,4.8,0.,4.8
1979-07-19 03:19:08.580 ,7,0,,0,0.,4.8,0.,4.8,,0,0.,4.8,0.,4.8
1979-07-19 03:19:13.380 ,6,0,,0,0.,4.8,0.,4.8,,0,0.,4.8,0.,4.8
1979-07-19 03:19:18.180 ,6,0,,0,0.,4.8,0.,4.8,,0,0.,4.8,2.,4.8
1979-07-19 03:19:22.980 ,6,0,,0,4.,4.8,0.,4.8,,0,0.,4.8,4.,4.8
1979-07-19 03:19:27.780 ,6,0,,0,14.,4.8,1.,4.8,,0,0.,4.8,3.,4.8
1979-07-19 03:19:32.580 ,6,0,,0,11.,4.8,0.,4.8,,0,0.,4.8,2.,4.8
1979-07-19 03:19:37.380 ,6,0,,0,13.,4.8,1.,4.8,,0,0.,4.8,3.,4.8
1979-07-19 03:19:42.180 ,6,0,,0,13.,4.8,0.,4.8,,0,0.,4.8,7.,4.8
1979-07-19 03:19:46.980 ,6,0,,0,9.,4.8,2.,4.8,,0,0.,4.8,0.,4.8
1979-07-19 03:19:51.780 ,6,0,,0,0.,4.8,0.,4.8,,0,0.,4.8,11.,4.8
1979-07-19 03:19:56.580 ,6,0,,0,0.,4.8,0.,4.8,,0,0.,4.8,2.,4.8
1979-07-19 03:20:01.380 ,5,0,,0,0.,4.8,0.,4.8,,0,0.,4.8,2.,4.8
1979-07-19 03:20:06.180 ,5,0,,0,0.,4.8,0.,4.8,,0,0.,4.8,7.,4.8
1979-07-19 03:20:10.980 ,5,0,,0,3.,4.8,0.,4.8,,0,0.,4.8,1.,4.8
1979-07-19 03:20:15.780 ,5,0,,0,6.,4.8,0.,4.8,,0,0.,4.8,1.,4.8
1979-07-19 03:20:20.580 ,5,0,,0,5.,4.8,0.,4.8,,0,0.,4.8,2.,4.8
1979-07-19 03:20:25.380 ,5,0,,0,13.,4.8,2.,4.8,,0,0.,4.8,5.,4.8
1979-07-19 03:20:30.180 ,5,0,,0,7.,4.8,0.,4.8,,0,0.,4.8,3.,4.8
1979-07-19 03:20:34.980 ,5,0,,0,7.,4.8,1.,4.8,,0,0.,4.8,3.,4.8
1979-07-19 03:20:39.780 ,5,0,,0,0.,4.8,0.,4.8,,0,0.,4.8,9.,4.8
1979-07-19 03:20:44.580 ,5,0,,0,0.,4.8,0.,4.8,,0,0.,4.8,3.,4.8
1979-07-19 03:20:49.380 ,4,0,,0,0.,4.8,0.,4.8,,0,0.,4.8,1.,4.8
1979-07-19 03:20:54.180 ,4,0,,0,0.,4.8,0.,4.8,,0,0.,4.8,6.,4.8
1979-07-19 03:20:58.980 ,4,0,,0,7.,4.8,1.,4.8,,0,0.,4.8,10.,4.8
1979-07-19 03:21:03.780 ,4,0,,0,27.,4.8,2.,4.8,,0,0.,4.8,9.,4.8
1979-07-19 03:21:08.580 ,4,0,,0,23.,4.8,4.,4.8,,0,0.,4.8,10.,4.8
1979-07-19 03:21:13.380 ,4,0,,0,25.,4.8,3.,4.8,,0,0.,4.8,14.,4.8
1979-07-19 03:21:18.180 ,4,0,,0,23.,4.8,0.,4.8,,0,0.,4.8,11.,4.8
1979-07-19 03:21:22.980 ,4,0,,0,30.,4.8,1.,4.8,,0,0.,4.8,11.,4.8
1979-07-19 03:21:27.780 ,4,0,,0,0.,4.8,0.,4.8,,0,0.,4.8,16.,4.8
1979-07-19 03:21:32.580 ,4,0,,0,0.,4.8,0.,4.8,,0,0.,4.8,11.,4.8
1979-07-19 03:21:37.380 ,3,0,,0,0.,4.8,0.,4.8,,0,0.,4.8,8.,4.8
1979-07-19 03:21:42.180 ,3,0,,0,0.,4.8,0.,4.8,,0,0.,4.8,9.,4.8
1979-07-19 03:21:46.980 ,3,0,,0,7.,4.8,3.,4.8,,0,0.,4.8,13.,4.8
1979-07-19 03:21:51.780 ,3,0,,0,25.,4.8,0.,4.8,,0,0.,4.8,16.,4.8
1979-07-19 03:21:56.580 ,3,0,,0,33.,4.8,2.,4.8,,0,0.,4.8,14.,4.8
1979-07-19 03:22:01.380 ,3,0,,0,25.,4.8,1.,4.8,,0,0.,4.8,20.,4.8
1979-07-19 03:22:06.180 ,3,0,,0,23.,4.8,2.,4.8,,0,0.,4.8,11.,4.8
1979-07-19 03:22:10.980 ,3,0,,0,23.,4.8,3.,4.8,,0,0.,4.8,16.,4.8
1979-07-19 03:22:15.780 ,3,0,,0,0.,4.8,0.,4.8,,0,0.,4.8,16.,4.8
1979-07-19 03:22:20.580 ,3,0,,0,0.,4.8,0.,4.8,,0,0.,4.8,15.,4.8
1979-07-19 03:22:25.380 ,2,0,,0,0.,4.8,0.,4.8,,0,0.,4.8,12.,4.8
1979-07-19 03:22:30.180 ,2,0,,0,0.,4.8,0.,4.8,,0,0.,4.8,14.,4.8
1979-07-19 03:22:34.980 ,2,0,,0,7.,4.8,1.,4.8,,0,0.,4.8,21.,4.8
1979-07-19 03:22:39.780 ,2,0,,0,39.,4.8,3.,4.8,,0,0.,4.8,13.,4.8
1979-07-19 03:22:44.580 ,2,0,,0,35.,4.8,4.,4.8,,0,0.,4.8,19.,4.8
1979-07-19 03:22:49.380 ,2,0,,0,47.,4.8,3.,4.8,,0,0.,4.8,16.,4.8
1979-07-19 03:22:54.180 ,2,0,,0,33.,4.8,3.,4.8,,0,0.,4.8,6.,4.8
1979-07-19 03:22:58.980 ,2,0,,0,21.,4.8,3.,4.8,,0,0.,4.8,24.,4.8
1979-07-19 03:23:03.780 ,2,0,,0,1.,4.8,0.,4.8,,0,0.,4.8,12.,4.8
1979-07-19 03:23:08.580 ,2,0,,0,0.,4.8,0.,4.8,,0,0.,4.8,13.,4.8
1979-07-19 03:23:13.380 ,1,0,,0,0.,4.8,0.,4.8,,0,0.,4.8,13.,4.8
1979-07-19 03:23:18.180 ,1,0,,0,0.,4.8,0.,4.8,,0,0.,4.8,30.,4.8
1979-07-19 03:23:22.980 ,1,0,,0,6.,4.8,1.,4.8,,0,0.,4.8,17.,4.8
1979-07-19 03:23:27.780 ,1,0,,0,39.,4.8,4.,4.8,,0,0.,4.8,25.,4.8
1979-07-19 03:23:32.580 ,1,0,,0,51.,4.8,4.,4.8,,0,0.,4.8,19.,4.8
1979-07-19 03:23:37.380 ,1,0,,0,37.,4.8,3.,4.8,,0,0.,4.8,19.,4.8
1979-07-19 03:23:42.180 ,1,0,,0,35.,4.8,7.,4.8,,0,0.,4.8,13.,4.8
1979-07-19 03:23:46.980 ,1,0,,0,24.,4.8,0.,4.8,,0,0.,4.8,12.,4.8
1979-07-19 03:23:51.780 ,1,0,,0,0.,4.8,0.,4.8,,0,0.,4.8,18.,4.8
1979-07-19 03:23:56.580 ,1,0,,0,0.,4.8,0.,4.8,,0,0.,4.8,19.,4.8
1979-07-19 03:24:01.380 ,0,0,,0,0.,4.8,0.,4.8,,0,0.,4.8,21.,4.8
1979-07-19 03:24:06.180 ,0,0,,0,0.,4.8,0.,4.8,,0,0.,4.8,11.,4.8
1979-07-19 03:24:10.980 ,0,0,,0,0.,4.8,0.,4.8,,0,0.,4.8,3.,4.8
1979-07-19 03:24:15.780 ,0,0,,0,4.,4.8,0.,4.8,,0,0.,4.8,2.,4.8
1979-07-19 03:24:20.580 ,0,0,,0,5.,4.8,1.,4.8,,0,0.,4.8,3.,4.8
1979-07-19 03:24:25.380 ,0,0,,0,5.,4.8,0.,4.8,,0,0.,4.8,0.,4.8
1979-07-19 03:24:30.180 ,0,0,,0,4.,4.8,0.,4.8,,0,0.,4.8,1.,4.8
1979-07-19 03:24:34.980 ,0,0,,0,7.,4.8,0.,4.8,,0,0.,4.8,1.,4.8
1979-07-19 03:24:39.780 ,0,0,,0,0.,4.8,0.,4.8,,0,0.,4.8,1.,4.8
1979-07-19 03:24:44.580 ,0,0,,0,0.,4.8,0.,4.8,,0,0.,4.8,0.,4.8
1979-07-19 03:24:49.380 ,0,0,,0,0.,4.8,0.,4.8,,0,0.,4.8,0.,4.8
1979-07-19 03:24:54.180 ,0,0,,0,0.,4.8,0.,4.8,,0,0.,4.8,1.,4.8
1979-07-19 03:24:58.980 ,0,0,,0,1.,4.8,0.,4.8,,0,0.,4.8,1.,4.8
1979-07-19 03:25:03.780 ,0,0,,0,5.,4.8,1.,4.8,,0,0.,4.8,1.,4.8
1979-07-19 03:25:08.580 ,0,0,,0,1.,4.8,0.,4.8,,0,0.,4.8,3.,4.8
1979-07-19 03:25:13.380 ,0,0,,0,5.,4.8,0.,4.8,,0,0.,4.8,1.,4.8
1979-07-19 03:25:18.180 ,0,0,,0,3.,4.8,0.,4.8,,0,0.,4.8,1.,4.8
1979-07-19 03:25:22.980 ,0,0,,0,4.,4.8,2.,4.8,,0,0.,4.8,2.,4.8
1979-07-19 03:25:27.780 ,0,0,,0,0.,4.8,0.,4.8,,0,0.,4.8,1.,4.8
1979-07-19 03:25:32.580 ,0,0,,0,0.,4.8,0.,4.8,,0,0.,4.8,1.,4.8
1979-07-19 03:25:37.380 ,1,0,,0,0.,4.8,0.,4.8,,0,0.,4.8,3.,4.8
1979-07-19 03:25:42.180 ,1,0,,0,0.,4.8,0.,4.8,,0,0.,4.8,4.,4.8
1979-07-19 03:25:46.980 ,1,0,,0,5.,4.8,0.,4.8,,0,0.,4.8,13.,4.8
1979-07-19 03:25:51.780 ,1,0,,0,33.,4.8,3.,4.8,,0,0.,4.8,21.,4.8
1979-07-19 03:25:56.580 ,1,0,,0,31.,4.8,3.,4.8,,0,0.,4.8,15.,4.8
1979-07-19 03:26:01.380 ,1,0,,0,39.,4.8,4.,4.8,,0,0.,4.8,18.,4.8
1979-07-19 03:26:06.180 ,1,0,,0,36.,4.8,3.,4.8,,0,0.,4.8,15.,4.8
1979-07-19 03:26:10.980 ,1,0,,0,30.,4.8,2.,4.8,,0,0.,4.8,14.,4.8
1979-07-19 03:26:15.780 ,1,0,,0,0.,4.8,0.,4.8,,0,0.,4.8,19.,4.8
1979-07-19 03:26:20.580 ,1,0,,0,0.,4.8,0.,4.8,,0,0.,4.8,18.,4.8
1979-07-19 03:26:25.380 ,2,0,,0,0.,4.8,0.,4.8,,0,0.,4.8,16.,4.8
1979-07-19 03:26:30.180 ,2,0,,0,0.,4.8,0.,4.8,,0,0.,4.8,18.,4.8
1979-07-19 03:26:34.980 ,2,0,,0,6.,4.8,1.,4.8,,0,0.,4.8,15.,4.8
1979-07-19 03:26:39.780 ,2,0,,0,36.,4.8,3.,4.8,,0,0.,4.8,15.,4.8
1979-07-19 03:26:44.580 ,2,0,,0,33.,4.8,5.,4.8,,0,0.,4.8,23.,4.8
1979-07-19 03:26:49.380 ,2,0,,0,34.,4.8,1.,4.8,,0,0.,4.8,18.,4.8
1979-07-19 03:26:54.180 ,2,0,,0,36.,4.8,3.,4.8,,0,0.,4.8,14.,4.8
1979-07-19 03:26:58.980 ,2,0,,0,40.,4.8,3.,4.8,,0,0.,4.8,12.,4.8
1979-07-19 03:27:03.780 ,2,0,,0,0.,4.8,0.,4.8,,0,0.,4.8,13.,4.8
1979-07-19 03:27:08.580 ,2,0,,0,0.,4.8,0.,4.8,,0,0.,4.8,11.,4.8
1979-07-19 03:27:13.380 ,3,0,,0,0.,4.8,0.,4.8,,0,0.,4.8,10.,4.8
1979-07-19 03:27:18.180 ,3,0,,0,0.,4.8,0.,4.8,,0,0.,4.8,18.,4.8
1979-07-19 03:27:22.980 ,3,0,,0,7.,4.8,0.,4.8,,0,0.,4.8,21.,4.8
1979-07-19 03:27:27.780 ,3,0,,0,38.,4.8,6.,4.8,,0,0.,4.8,15.,4.8
1979-07-19 03:27:32.580 ,3,0,,0,27.,4.8,2.,4.8,,0,0.,4.8,18.,4.8
1979-07-19 03:27:37.380 ,3,0,,0,29.,4.8,1.,4.8,,0,0.,4.8,14.,4.8
1979-07-19 03:27:42.180 ,3,0,,0,27.,4.8,2.,4.8,,0,0.,4.8,20.,4.8
1979-07-19 03:27:46.980 ,3,0,,0,30.,4.8,1.,4.8,,0,0.,4.8,18.,4.8
1979-07-19 03:27:51.780 ,3,0,,0,0.,4.8,0.,4.8,,0,0.,4.8,13.,4.8
1979-07-19 03:27:56.580 ,3,0,,0,0.,4.8,0.,4.8,,0,0.,4.8,14.,4.8
1979-07-19 03:28:01.380 ,4,0,,0,0.,4.8,0.,4.8,,0,0.,4.8,19.,4.8
1979-07-19 03:28:06.180 ,4,0,,0,0.,4.8,0.,4.8,,0,0.,4.8,22.,4.8
1979-07-19 03:28:10.980 ,4,0,,0,5.,4.8,1.,4.8,,0,0.,4.8,4.,4.8
1979-07-19 03:28:15.780 ,4,0,,0,19.,4.8,1.,4.8,,0,0.,4.8,9.,4.8
1979-07-19 03:28:20.580 ,4,0,,0,21.,4.8,1.,4.8,,0,0.,4.8,9.,4.8
1979-07-19 03:28:25.380 ,4,0,,0,21.,4.8,1.,4.8,,0,0.,4.8,15.,4.8
1979-07-19 03:28:30.180 ,4,0,,0,17.,4.8,0.,4.8,,0,0.,4.8,8.,4.8
1979-07-19 03:28:34.980 ,4,0,,0,21.,4.8,2.,4.8,,0,0.,4.8,10.,4.8
1979-07-19 03:28:39.780 ,4,0,,0,0.,4.8,0.,4.8,,0,0.,4.8,9.,4.8
1979-07-19 03:28:44.580 ,4,0,,0,0.,4.8,0.,4.8,,0,0.,4.8,8.,4.8
1979-07-19 03:28:49.380 ,5,0,,0,0.,4.8,0.,4.8,,0,0.,4.8,15.,4.8
1979-07-19 03:28:54.180 ,5,0,,0,0.,4.8,0.,4.8,,0,0.,4.8,13.,4.8
1979-07-19 03:28:58.980 ,5,0,,0,2.,4.8,0.,4.8,,0,0.,4.8,1.,4.8
1979-07-19 03:29:03.780 ,5,0,,0,3.,4.8,0.,4.8,,0,0.,4.8,3.,4.8
1979-07-19 03:29:08.580 ,5,0,,0,7.,4.8,0.,4.8,,0,0.,4.8,2.,4.8
1979-07-19 03:29:13.380 ,5,0,,0,3.,4.8,0.,4.8,,0,0.,4.8,5.,4.8
1979-07-19 03:29:18.180 ,5,0,,0,11.,4.8,0.,4.8,,0,0.,4.8,4.,4.8
1979-07-19 03:29:22.980 ,5,0,,0,9.,4.8,0.,4.8,,0,0.,4.8,2.,4.8
1979-07-19 03:29:27.780 ,5,0,,0,0.,4.8,0.,4.8,,0,0.,4.8,1.,4.8
1979-07-19 03:29:32.580 ,5,0,,0,0.,4.8,0.,4.8,,0,0.,4.8,1.,4.8
1979-07-19 03:29:37.380 ,6,0,,0,0.,4.8,0.,4.8,,0,0.,4.8,2.,4.8
1979-07-19 03:29:42.180 ,6,0,,0,0.,4.8,0.,4.8,,0,0.,4.8,2.,4.8
1979-07-19 03:29:46.980 ,6,0,,0,6.,4.8,0.,4.8,,0,0.,4.8,4.,4.8
1979-07-19 03:29:51.780 ,6,0,,0,13.,4.8,5.,4.8,,0,0.,4.8,3.,4.8